Regional Weather Roundup
Issued by NWS

Home | Current Version | Previous Version | Graphics & Text | Print | Product List | Glossary On
Versions: 1 2 3 4 5 6 7 8 9 10 11 12 13 14 15 16 17 18 19 20 21 22 23 24 25 26 27 28 29 30 31 32 33 34 35 36 37 38 39 40 41 42 43 44 45 46 47 48 49 50
000
ASUS43 KIND 010809
RWRIN

WEATHER ROUNDUP FOR INDIANA
NATIONAL WEATHER SERVICE INDIANAPOLIS IN
400 AM EDT SAT OCT 01 2016

NOTE: "FAIR" INDICATES FEW OR NO CLOUDS BELOW 12,000 FEET WITH NO
SIGNIFICANT WEATHER AND/OR OBSTRUCTIONS TO VISIBILITY.

* - STATION DOES NOT REPORT WEATHER SUCH AS PRECIPITATION OR FOG.

+ - STATION NOT QUALITY CONTROLLED BY THE NATIONAL WEATHER SERVICE.
    USE DATA WITH CAUTION...ESPECIALLY DEWPOINT AND RELATIVE
    HUMIDITY OBSERVATIONS.

INZ001>003-010>013-019-020-010900-
NORTHWEST INDIANA

CITY           SKY/WX    TMP DP  RH WIND       PRES   REMARKS
GARY /AIRPORT/ PTCLDY    58  58  99 CALM      30.03F
KNOX *+        CLOUDY    55  48  76 N3        30.02S
LA PORTE +     CLOUDY   N/A N/A N/A NE6       30.03S
MICHIGAN CITY+ CLOUDY    54  54 100 CALM      30.04S FOG
MONTICELLO +   CLOUDY    59  55  85 CALM      30.00S
RENSSELAER +   CLOUDY    59  57  94 NE3       30.01S
VALPARAISO     CLOUDY    57  56  96 N3        30.03F

$$

LMZ046-743>745-010900-
SOUTHERN LAKE MICHIGAN

STATION/POSITION TIME  TEMP    WIND        PRES    WAVE
                       AIR SEA DIR/SP/G            HT
                 (UTC) (F)     (DEG/KT/KT) (MB)    (FT)
BURNS HARBOR     0740   60      80/  9/ 10 1017.3F
MICHIGAN CITY    0740   60      30/  6/  7   N/A
5NW MICH CITY    0800   62 64   50/  8/ 12   N/A     3

$$

INZ004-005-014>016-021>024-010900-
NORTH CENTRAL INDIANA

CITY           SKY/WX    TMP DP  RH WIND       PRES   REMARKS
GOSHEN         RAIN      60  57  89 N5        30.00F FOG
LOGANSPORT +   CLOUDY    55  55 100 CALM      30.01S FOG
PERU/GRISSOM   MOCLDY    58  58  99 NE5       29.98F
ROCHESTER +    CLOUDY    61  61 100 CALM      30.01F
SOUTH BEND     CLOUDY    59  58  96 N6        30.03F
WARSAW +       RAIN      59  55  88 CALM      30.01F

$$

INZ006>009-017-018-025>027-010900-
NORTHEAST INDIANA

CITY           SKY/WX    TMP DP  RH WIND       PRES   REMARKS
ANGOLA *+        N/A     59  48  67 E8        30.01F
AUBURN +       LGT RAIN  59  57  94 E8        30.00F
FORT WAYNE     CLOUDY    59  58  96 S3        29.99F
HUNTINGTON +   CLOUDY    58  57  96 CALM      29.99F FOG
KENDALLVILLE + CLOUDY    59  59 100 NE5       30.00F

$$

INZ028-029-035-036-043>045-051>053-010900-
WEST CENTRAL INDIANA

CITY           SKY/WX    TMP DP  RH WIND       PRES   REMARKS
CRAWFORDSVL +  CLOUDY    54  54 100 CALM      29.99F FOG
GREENCASTLE +  CLOUDY    52  52 100 CALM      30.00F FOG
LAFAYETTE      CLOUDY    58  58 100 E6        29.99S
TERRE HAUTE    CLEAR     54  52  93 CALM      29.99F

$$

INZ030>032-037>040-046>048-054>057-064-065-010900-
CENTRAL INDIANA

CITY           SKY/WX    TMP DP  RH WIND       PRES   REMARKS
FISHERS *+     CLOUDY    54  54 100 CALM      30.00F
FRANKFORT +    CLOUDY    59  58  97 CALM      30.02S FOG
GREENWOOD *+   MOCLDY    52  52 100 CALM      30.01S
INDIANAPOLIS   PTCLDY    54  53  97 SE6       30.00S
-EAGLE CREEK   CLOUDY    57  54  89 CALM      30.00S
KOKOMO *+      CLOUDY    57  57 100 CALM      30.01S
MARION +       CLOUDY    56  56  99 CALM      30.00F FOG
MT COMFORT *+  PTCLDY    50  50 100 CALM      30.01S
SHELBYVILLE    MOCLDY    54  50  86 SE3       30.00F
ZIONSVILLE +   CLOUDY    55  55  99 CALM      30.01S FOG

$$

INZ033-034-041-042-049-050-058-059-010900-
EAST CENTRAL INDIANA

CITY           SKY/WX    TMP DP  RH WIND       PRES   REMARKS
MUNCIE         CLOUDY    57  53  86 SW3       30.00F

$$

INZ060-061-067>069-081>083-085>088-010900-
SOUTHWEST INDIANA

CITY           SKY/WX    TMP DP  RH WIND       PRES   REMARKS
EVANSVILLE     CLOUDY    57  55  93 CALM      29.99S FOG
HUNTINGBURG *+   N/A     54  52  94 E3        30.00S VSB 3/4
WASHINGTON +   CLEAR    N/A N/A N/A CALM      29.99S HAZE

$$

INZ062-063-066-070>080-084-089>092-010900-
SOUTH CENTRAL AND SOUTHEAST INDIANA

CITY           SKY/WX    TMP DP  RH WIND       PRES   REMARKS
BLOOMINGTON    CLOUDY    52  49  89 E5        30.00S FOG
MADISON *+     PTCLDY    52  50  93 CALM      30.03F
NORTH VERNON + MOCLDY   N/A N/A N/A CALM      30.01F HAZE
SEYMOUR +      CLOUDY    54  52  94 CALM      30.02R FOG

$$





USA.gov is the U.S. government's official web portal to all federal, state and local government web resources and services.